Other Public Products
Issued by NWS Grand Forks, ND

Home | Current Version | Previous Version | Graphics & Text | Print | Product List | Glossary On
Versions: 1 2 3 4 5 6 7 8 9 10 11 12 13 14 15 16 17 18 19 20 21 22 23 24 25 26 27 28 29 30 31 32 33 34 35 36 37 38 39 40 41 42 43 44 45 46 47 48 49 50
000
FPUS83 KFGF 201410
OPUFGF
PRAIRIE TO PINES WEATHER ROUNDUP
NATIONAL WEATHER SERVICE EASTERN NORTH DAKOTA/GRAND FORKS ND
800 AM CST SAT JAN 20 2018

 **SATELLITE DATA USED TO AUGMENT SKY COVER AT AUTOMATED STATIONS**
 *****  WEATHER ACROSS EASTERN NORTH DAKOTA  *****

CITY           SKY/WX    TMP DP  RH WIND       PRES   REMARKS
GRAND FORKS    MOCLDY    25  23  92 S6        29.76R WCI  18
GRND FORKS AFB FAIR      29  23  80 W6        29.76R WCI  23
GRND FORKS NWS NOT AVBL
BUXTON         NOT AVBL
DEVILS LAKE    FAIR      26  22  84 SW9       29.75R WCI  17
FARGO          FAIR      26  24  92 SW7       29.79R WCI  18
WAHPETON ARPT  FAIR      27  23  86 W5        29.81S WCI  21
$$

 *****  WEATHER ACROSS CENTRAL AND WESTERN NORTH DAKOTA  *****

CITY           SKY/WX    TMP DP  RH WIND       PRES   REMARKS
JAMESTOWN      FAIR      32  28  85 W7        29.78R
BISMARCK       MOCLDY    33  30  88 W5        29.82R
MINOT          FAIR      32  24  72 W9        29.74R WCI  24
MINOT AFB      FAIR      27  22  81 W9        29.73R WCI  18
GARRISON         N/A     28  24  85 W9        29.78R WCI  19
WILLISTON      FAIR      27  19  72 S5        29.79R WCI  22
DICKINSON      FAIR      31  25  78 W13       29.80R WCI  21
HETTINGER      CLOUDY    32  29  88 NW9       29.85R WCI  24
$$

 *****  OTHER OBSERVATIONS NORTHEAST NORTH DAKOTA  *****

CITY           SKY/WX    TMP DP  RH WIND       PRES   REMARKS
WALHALLA       FAIR      27  27 100 W6        29.73S WCI  20
LANGDON        FAIR      19  19 100 SW5       29.73R WCI  13
CAVALIER         N/A     27  25  93 NW3       29.74R
GRAFTON        FAIR      23  23 100 CALM      29.77R
CANDO          FAIR      21  21 100 W6        29.76R WCI  14
FORT TOTTEN      N/A     28  24  84 W2        29.95
ROLLA          FAIR      18  18 100 SW7       29.72R WCI   8
RUGBY          FAIR      21  19  93 W9        29.74R WCI  11
 ***** THE ABOVE OBSERVATIONS ARE NON NWS ARE NOT QUALITY
        CONTROLLED AND MAY MIS-REPORT RAIN FOR SNOW...
$$

 *****  OTHER OBSERVATIONS SOUTHEAST NORTH DAKOTA *****

CITY           SKY/WX    TMP DP  RH WIND       PRES   REMARKS
COOPERSTOWN    FAIR      25  23  93 W12       29.76F WCI  14
VALLEY CITY    PTSUNNY   30  30 100 W10       29.79R WCI  21
OAKES            N/A     30  28  93 SW8       29.82R WCI  23
GWINNER          N/A     28  27  93 SW7       29.82R WCI  21
SHEYENNE NWR     N/A     25  25 100 W2        29.95S
BUFFALO        NOT AVBL
WYNDMERE       NOT AVBL
 ***** THE ABOVE OBSERVATIONS ARE NON NWS ARE NOT QUALITY
       CONTROLLED AND MAY MIS-REPORT RAIN FOR SNOW...
$$

  *****  WEATHER ACROSS NORTHERN MINNESOTA  *****

CITY           SKY/WX    TMP DP  RH WIND       PRES   REMARKS
FLAG ISLAND    MOCLDY    28  27  93 CALM      29.70R FOG
WARROAD        FAIR      25  21  86 SW3       29.73R
ROSEAU         FAIR      25  21  86 SW6       29.73R WCI  18
HALLOCK        FAIR      19  18  93 CALM      29.75R
THF RVR FALLS  FLURRIES  20  19  96 SW7       29.77  WCI  11
HALSTAD        NOT AVBL
FOSSTON        FAIR      18  16  93 S6        29.78R WCI   9
BAUDETTE       FAIR      25  23  92 S5        29.71R WCI  19
WASKISH        FAIR      27  25  93 CALM      29.74R
CROOKSTON      FAIR      23  21  93 S6        29.78R WCI  16
$$
  *****  WEATHER ACROSS CENTRAL AND WEST MINNESOTA  *****

CITY           SKY/WX    TMP DP  RH WIND       PRES   REMARKS
BEMIDJI        FAIR      23  22  96 SW3       29.75S
PARK RAPIDS    FOG       23  19  85 SW3       29.76R VSB 1/2
WADENA         FAIR      23  23 100 CALM      29.78S
DETROIT LAKES  FAIR      27  27 100 SW3       29.79R
MOORHEAD       FAIR      25  21  86 S6        29.81R WCI  18
FERGUS FALLS   FAIR      25  25 100 CALM      29.81R
ELBOW LAKE     CLOUDY    27  25  92 W3        29.82R FOG
MORRIS MN      CLOUDY    30  27  86 SW5       29.82R
STAPLES        MOCLDY    25  25 100 CALM      29.78S
WHEATON        NOT AVBL
$$
  *****  WEATHER ELSEWHERE ACROSS MINNESOTA  *****

CITY           SKY/WX    TMP DP  RH WIND       PRES   REMARKS
DULUTH         FAIR      28  25  88 SW8       29.77R WCI  20
INTRNTL FALLS  FAIR      27  23  85 SW7       29.72R WCI  19
ELY            MOCLDY    30  28  93 SW5       29.72R
CLOQUET        FAIR      28  27  93 W3        29.78R
BRAINERD       CLOUDY    28  25  88 S7        29.79S WCI  21
HIBBING        FAIR      16  15  96 CALM      29.75R FOG
ALEXANDRIA     CLOUDY    28  27  96 SW3       29.80S
SAINT CLOUD    MOCLDY    25  24  96 CALM      29.81S
MINNEAPOLIS    MOCLDY    29  28  96 E3        29.82F
$$

  *****  WEATHER ACROSS SOUTH DAKOTA  *****

CITY           SKY/WX    TMP DP  RH WIND       PRES   REMARKS
SIOUX FALLS    MOCLDY    23  21  92 CALM      29.84S
BROOKINGS      FAIR      22  21  96 CALM      29.83S
WATERTOWN      CLOUDY    28  27  96 CALM      29.81R
HURON          MOCLDY    26  24  92 CALM      29.85R
SISSETON         N/A     37  29  72 NW9       29.81R
ABERDEEN       CLOUDY    29  28  96 CALM      29.86R
MITCHELL       FAIR      25  24  96 W3        29.85S
PIERRE         FAIR      31  30  96 W8        29.85R WCI  23
MOBRIDGE       CLOUDY    34  30  85 CALM      29.84R
RAPID CITY     CLOUDY    33  31  92 NW13      29.86S WCI  24
$$

  *****  SOME WEATHER IN NEARBY STATES *****

CITY           SKY/WX    TMP DP  RH WIND       PRES   REMARKS
GLASGOW MT     FAIR      22  16  78 W7        29.81R WCI  13
GREAT FALLS MT FAIR      26  16  65 SW13      29.84R WCI  15
CHEYENNE WY    FAIR      31  19  61 N6        29.77R
SCOTTSBLUFF NE FAIR      27  25  92 W6        29.83R WCI  20
OMAHA NE       FAIR      24  22  91 N5        29.84R WCI  18
DES MOINES IA  FAIR      32  27  81 CALM      29.85R
DAVENPORT IA   FAIR      34  27  75 SW5       29.90R
CHICAGO IL     MOCLDY    33  26  75 SW8       29.89R
EAU CLAIRE WI  FOG       23  22  96 SW6       29.84R VSB 1/4 WCI  16
LA CROSSE WI   FAIR      24  22  91 CALM      29.86R FOG
$$

  *****  SOME NATIONAL WEATHER *****

CITY           SKY/WX    TMP DP  RH WIND       PRES   REMARKS
LA GUARDIA NY  PTSUNNY   43  22  43 SW14G24   29.88R
RALEIGH NC     FAIR      34  23  64 CALM      30.18R
ATLANTA GA     PTSUNNY   41  23  48 CALM      30.26R
NEW ORLEANS LA LGT RAIN  53  50  89 SE10      30.23S
OKLAHOMA CITY  CLOUDY    49  46  90 S20G25    29.85S
ALBUQUERQUE NM FAIR      31  14  49 CALM      29.99S
SALT LAKE CITY LGT SNOW  32  30  92 N15       29.88F FOG     WCI  22
LOS ANGELES CA FAIR      53  32  44 NW9       29.96R
BOISE ID       CLOUDY    30  25  81 CALM      30.04R
SEATTLE WA     CLOUDY    41  37  86 S12       30.02R
$$

*** WEATHER ACROSS MANITOBA...SASKATCHEWAN AND ONTARIO ***
                ***ONTARIO***

CITY           SKY/WX    TMP DP  RH WIND       PRES   REMARKS
GERALDTON      PTCLDY     1  -2  85 N6        29.74R WCI -10
THUNDER BAY    CLOUDY    36  30  80 SW2       29.71R
SIOUX LOOKOUT  FLURRIES  19  16  86 VRB2      29.69R
TORONTO        PTSUNNY   36  25  64 SW14      29.79R
BIG TROUT LK   CLOUDY   -24 -29  76 W3        29.83R
PICKLE LAKE    CRYSTALS  -6  -9  84 NE2       29.74R
DRYDEN         CLOUDY    21  18  86 NE5       29.68R WCI  15
KENORA         CLOUDY    23  21  93 N7        29.69R WCI  15
$$
                *** MANITOBA***

CITY           SKY/WX    TMP DP  RH WIND       PRES   REMARKS
BRANDON        PTCLDY    14  10  85 SW8       29.70R WCI   3
DAUPHIN        FLURRIES  19  18  93 NE5       29.69S WCI  13
ISLAND LAKE    MOCLDY    -6  -9  84 NE3       29.83R
PILOT MOUND      N/A     18  16  93 SW6         N/A  WCI   9
THE PAS        FLURRIES   3  -2  78 E6        29.75R WCI  -8
THOMPSON       FLURRIES  -2  -6  84 E5        29.86R WCI -12
WINNIPEG       CLOUDY    14  12  92 N3        29.75R
LYNN LAKE      FLURRIES  -2  -6  84 SE10      29.79R WCI -19
CHURCHILL      FLURRIES  -2  -8  78 NE13G20   30.00R WCI -21
$$
                ***SASKATCHEWAN***

CITY           SKY/WX    TMP DP  RH WIND       PRES   REMARKS
ESTEVAN        PTCLDY    14  10  85 SW9       29.73R WCI   2
KINDERSLEY     CLEAR     19  16  86 SW7       29.70R WCI  10
LLOYDMINSTER   CLOUDY    23  21  93 W8        29.67R WCI  14
PRINCE ALBERT  LGT SNOW  19  16  86 E7        29.65R WCI  10
REGINA         MOCLDY    23  19  86 W12       29.68S WCI  12
YORKTON        MOCLDY    28  23  80 SW8       29.63S WCI  20
N. BATTLEFORD  CLOUDY    27  21  80 W9        29.68R WC



USA.gov is the U.S. government's official web portal to all federal, state and local government web resources and services.